Location: Saint-Palais-sur-Mer
(45.6429°N, 1.0859°W)
Time: 09:40:12
(UTC+01:00)

Vanguard 1 Rocket - All Passes

Search period start: 15 February 2026 00:00
Search period end: 25 February 2026 00:00
Orbit: 652 x 4215 km, 34.3° (Epoch: 12 February)

Date Brightness Start Highest point End Pass type
(mag) Time Alt. Az. Time Alt. Az. Time Alt. Az.
15 Feb - 14:06:57 10° SSW 14:15:52 35° SE 14:31:14 10° E daylight
15 Feb - 16:29:31 10° WSW 16:42:19 57° S 17:04:56 10° ESE daylight
15 Feb - 18:54:47 10° W 19:11:49 53° SSW 19:36:19 10° SE visible
15 Feb - 21:23:16 10° W 21:41:29 33° SW 22:01:58 10° SSE visible
16 Feb - 12:57:15 10° S 13:03:49 22° SE 13:13:43 10° E daylight
16 Feb - 15:17:54 10° SW 15:28:30 49° SSE 15:47:59 10° E daylight
16 Feb - 17:42:02 10° W 17:56:43 57° S 18:20:44 10° ESE daylight
16 Feb - 20:08:40 10° W 20:26:32 42° SSW 20:49:22 10° SSE visible
16 Feb - 22:41:35 10° W 22:55:00 18° SW 23:08:57 10° SSW visible
17 Feb - 14:06:56 10° SSW 14:15:34 38° SSE 14:30:57 10° E daylight
17 Feb - 16:29:51 10° WSW 16:42:11 56° S 17:04:18 10° ESE daylight
17 Feb - 18:55:10 10° W 19:11:25 49° SSW 19:35:14 10° SE visible
17 Feb - 21:24:08 10° W 21:40:42 27° SW 21:59:41 10° S visible
18 Feb - 12:56:50 10° S 13:03:28 25° SE 13:13:56 10° E daylight
18 Feb - 15:18:11 10° WSW 15:28:23 51° SSE 15:47:28 10° E daylight
18 Feb - 17:42:25 10° W 17:56:30 54° S 18:19:51 10° ESE daylight
18 Feb - 20:09:14 10° W 20:25:57 36° SSW 20:47:39 10° SSE visible
18 Feb - 22:45:09 10° WSW 22:54:07 13° SW 23:03:28 10° SSW visible
19 Feb - 11:48:53 10° SSE 11:51:58 12° SE 11:55:42 10° ESE daylight
19 Feb - 14:07:04 10° SW 14:15:25 41° SSE 14:30:38 10° E daylight
19 Feb - 16:30:14 10° WSW 16:42:05 55° S 17:03:35 10° ESE daylight
19 Feb - 18:55:38 10° W 19:11:03 44° SSW 19:33:53 10° SE visible
19 Feb - 21:25:30 10° W 21:39:57 22° SW 21:56:41 10° S visible
20 Feb - 12:56:39 10° SSW 13:03:13 28° SE 13:13:59 10° E daylight
20 Feb - 15:18:32 10° WSW 15:28:21 52° S 15:46:55 10° ESE daylight
20 Feb - 17:42:52 10° W 17:56:20 50° SSW 18:18:48 10° SE daylight
20 Feb - 20:10:02 10° W 20:25:25 31° SW 20:45:31 10° SSE visible
21 Feb - 11:47:36 10° SSE 11:51:38 15° SE 11:56:58 10° ESE daylight
21 Feb - 14:07:19 10° SW 14:15:22 43° SSE 14:30:16 10° E daylight
21 Feb - 16:30:41 10° WSW 16:42:03 52° S 17:02:46 10° ESE daylight
21 Feb - 18:56:14 10° W 19:10:44 39° SSW 19:32:15 10° SSE visible
21 Feb - 21:27:43 10° WSW 21:39:19 17° SW 21:52:34 10° SSW visible
22 Feb - 12:56:41 10° SSW 13:03:06 31° SSE 13:13:56 10° E daylight
22 Feb - 15:18:58 10° WSW 15:28:25 51° S 15:46:19 10° ESE daylight
22 Feb - 17:43:24 10° W 17:56:12 45° SSW 18:17:32 10° SE daylight
22 Feb - 20:11:10 10° W 20:24:57 25° SW 20:42:48 10° S visible
23 Feb - 11:46:59 10° S 11:51:26 18° SE 11:57:39 10° E daylight
23 Feb - 14:07:41 10° SW 14:15:25 45° SSE 14:29:53 10° E daylight
23 Feb - 16:31:11 10° WSW 16:42:04 49° S 17:01:50 10° ESE daylight
23 Feb - 18:57:00 10° W 19:10:27 33° SSW 19:30:14 10° SSE visible
23 Feb - 21:32:11 10° WSW 21:38:46 12° SW 21:45:56 10° SSW visible
24 Feb - 12:56:50 10° SW 13:03:06 34° SSE 13:13:50 10° E daylight
24 Feb - 15:19:27 10° WSW 15:28:31 49° S 15:45:39 10° ESE daylight
24 Feb - 17:44:02 10° W 17:56:06 39° SSW 18:16:01 10° SE daylight
24 Feb - 20:12:52 10° WSW 20:24:33 20° SW 20:39:18 10° S visible
